Wind_Speed
12 12 11 11 14 15 11 7 6 5 4 3 1 0 1 1 1 1 1 2 3 3 4 4 4 4 4 4 5 5 5 6 6 6 6 6 6 6 6 7 7 6 6 6 6 6 6 6 6
11 10 10 12 14 11 7 6 6 6 4 3 1 1 1 0 1 0 0 1 1 2 2 3 3 4 4 4 5 5 5 6 6 5 5 5 5 5 6 6 6 6 6 5 5 5 5 5 5
10 9 10 11 12 9 5 6 6 7 5 4 3 3 3 1 0 1 1 1 1 1 2 2 3 3 4 4 4 5 5 6 5 5 4 4 4 5 5 5 5 5 5 5 5 5 5 4 4
8 8 10 12 9 5 5 5 5 6 6 5 4 4 4 3 1 1 1 1 1 1 2 2 3 3 4 4 4 5 5 5 5 5 4 4 4 4 5 5 5 5 5 5 5 5 4 4 3
5 7 9 10 5 3 5 4 4 5 6 6 5 5 5 4 3 2 2 1 2 2 2 2 2 3 4 4 4 5 6 5 5 5 4 3 4 4 4 4 4 4 4 4 4 3 3 2 2
4 6 8 7 3 3 5 4 3 3 5 6 6 5 5 5 4 3 3 2 2 2 2 2 3 3 4 5 5 5 6 6 6 5 4 3 3 3 3 3 3 3 3 3 3 3 2 2 1
4 5 6 4 2 5 6 5 4 3 5 5 6 6 5 5 5 4 4 3 2 3 3 3 3 4 4 4 5 6 6 6 6 5 4 3 2 3 3 3 3 3 3 2 2 2 2 1 1
3 4 5 3 3 6 7 7 6 5 5 5 5 6 5 5 5 4 4 3 2 3 3 3 4 4 5 5 6 6 6 6 6 5 4 3 2 2 2 2 2 2 2 2 2 2 1 1 1
3 4 5 3 5 6 8 7 7 6 7 6 5 6 6 5 5 5 4 4 3 3 4 4 4 5 6 6 6 6 7 6 6 6 5 4 3 2 2 1 1 1 1 2 2 2 1 1 1
4 3 4 4 6 7 8 7 7 7 8 8 7 6 5 5 5 5 5 5 5 5 5 5 5 5 6 7 7 7 7 7 7 6 6 4 3 2 2 1 1 1 1 2 2 2 1 1 1
6 5 6 7 9 9 8 6 6 8 9 9 8 7 7 7 7 7 7 6 6 6 6 6 6 6 6 7 8 8 8 8 8 7 6 5 4 3 2 2 2 1 0 1 1 1 1 1 1
8 7 9 9 11 10 8 7 8 9 10 12 10 9 9 8 8 8 7 7 7 7 7 6 5 6 7 8 9 9 9 8 8 7 6 6 4 3 2 2 2 2 1 0 0 1 1 1 1
9 9 10 12 11 10 10 9 10 9 10 13 12 11 11 10 9 8 8 8 8 8 8 7 6 7 8 9 9 10 10 9 8 7 7 7 5 4 4 3 2 2 2 2 1 1 1 1 1
10 10 11 11 11 11 10 10 10 10 11 13 13 11 10 10 10 10 9 9 9 9 8 8 8 9 9 10 10 10 10 10 9 8 8 7 6 6 5 4 3 3 3 3 2 2 2 2 1
11 11 11 11 11 11 11 12 11 11 12 13 14 12 11 11 11 11 10 10 10 10 9 9 8 8 9 10 11 11 11 11 10 9 9 8 8 7 6 5 5 5 4 4 3 3 2 2 2
11 11 10 10 11 11 12 12 13 11 11 13 14 14 12 13 13 12 12 12 12 11 10 10 10 9 10 10 11 11 11 11 11 11 10 9 9 8 8 7 7 6 5 5 5 4 3 3 2
11 10 9 10 12 12 13 12 12 12 12 14 14 14 14 13 13 13 13 13 13 12 12 11 11 10 10 10 11 12 13 13 12 12 11 11 11 10 9 9 9 8 7 6 6 5 4 4 3
10 9 11 12 13 14 14 13 14 13 12 15 15 15 14 14 14 14 14 13 14 13 12 12 11 11 10 10 10 11 12 13 13 13 12 12 12 12 11 10 10 10 8 8 7 6 5 5 4
14 14 14 13 15 16 15 15 16 15 13 16 15 14 15 15 13 14 12 12 12 13 12 11 11 11 10 10 10 10 11 13 13 13 13 13 13 13 13 12 12 10 9 9 8 7 6 6 5
18 16 16 16 16 16 16 16 16 15 13 16 15 15 15 14 14 14 12 12 12 12 11 11 11 11 11 11 10 11 12 12 12 13 13 13 13 14 14 14 13 12 10 10 9 9 8 8 7
19 17 16 15 16 17 16 15 16 15 15 15 15 15 15 14 13 13 12 12 12 11 10 10 11 11 11 11 11 12 12 12 12 13 14 14 15 15 14 15 15 14 13 12 11 11 10 10 9
18 18 17 17 17 17 15 15 17 17 16 14 14 15 15 14 14 13 12 12 12 11 11 11 11 11 11 11 12 13 12 13 13 14 14 15 15 16 16 16 16 15 15 14 14 13 13 12 11
19 18 18 18 18 17 16 16 18 18 17 13 14 15 15 15 14 13 13 12 12 12 11 12 12 12 11 11 12 12 12 12 13 14 14 15 15 16 16 16 16 17 17 16 16 16 15 14 13
21 20 19 18 18 18 16 15 17 16 17 15 15 14 14 14 14 14 13 12 12 12 11 11 12 12 12 12 12 12 12 13 13 14 15 16 15 16 16 16 17 17 17 17 17 17 16 15 15
21 20 19 17 16 14 13 15 17 18 18 16 15 16 15 13 14 15 14 13 12 11 12 11 12 12 12 12 13 13 13 13 13 14 15 16 16 16 16 16 17 17 18 18 18 18 17 17 16
20 20 17 13 11 11 12 15 17 19 19 16 16 16 14 13 14 14 13 13 12 12 12 13 13 13 13 13 13 12 12 13 13 14 15 14 15 16 16 17 17 18 19 19 19 18 18 17 17
21 20 17 15 13 13 15 15 17 19 18 17 16 16 15 14 14 13 13 12 12 13 13 13 13 13 13 13 13 12 13 13 14 15 14 14 15 15 16 17 18 18 19 19 19 19 19 19 19
22 20 21 21 19 18 16 14 17 18 17 17 17 16 16 15 14 13 13 13 13 13 13 13 13 14 14 14 13 13 13 14 14 14 14 14 14 16 17 18 19 20 20 20 20 20 20 21 20
22 23 22 21 20 17 15 17 19 19 18 16 16 16 16 16 15 14 14 13 13 13 14 14 15 15 15 15 14 14 14 14 14 14 13 13 14 15 17 18 19 19 20 21 22 22 21 21 21
21 22 23 23 22 20 18 19 18 17 14 15 16 16 16 16 16 16 15 14 14 13 14 14 15 14 15 15 14 14 14 14 14 14 14 14 15 16 16 17 18 19 20 21 22 22 22 22 22
Wind_Direction
80 81 83 84 76 67 56 30 19 24 36 45 63 284 24 93 182 142 114 120 122 128 135 146 148 149 154 157 164 167 167 162 155 146 138 130 123 117 115 112 107 104 101 99 98 96 93 91 89
84 85 83 79 72 64 44 13 3 16 27 25 5 333 358 131 204 230 167 170 160 148 149 158 158 159 166 171 177 181 176 170 164 154 144 137 130 123 119 113 108 103 101 101 100 98 96 93 91
90 92 84 69 60 41 25 354 2 11 22 19 10 354 6 25 26 295 258 215 206 189 176 177 176 173 181 189 192 191 184 178 173 163 152 143 135 130 123 115 107 103 104 104 101 100 99 98 98
99 99 91 77 64 29 350 345 355 9 5 5 4 357 359 353 348 313 270 237 232 226 205 191 189 189 191 196 196 195 191 187 183 173 162 151 143 137 125 114 106 104 105 105 101 101 103 105 106
112 100 89 86 69 357 327 328 338 359 355 349 352 356 354 353 345 319 289 266 256 244 220 208 202 202 200 198 200 204 202 200 197 188 176 167 156 134 120 115 107 105 104 104 103 100 102 107 109
114 98 82 77 85 305 311 325 335 336 337 338 339 341 344 340 332 317 290 267 251 249 239 226 217 210 200 204 211 213 213 211 207 201 195 183 159 142 127 121 113 103 98 102 101 88 92 112 117
100 90 94 80 342 293 303 313 311 305 312 323 324 330 330 326 327 320 307 286 247 251 257 248 231 220 212 212 220 223 219 216 215 214 211 204 189 166 145 129 117 103 98 99 100 82 88 98 132
123 112 122 130 275 278 295 306 306 303 298 314 311 321 336 328 325 320 311 295 277 259 257 260 245 230 221 221 227 228 225 222 221 221 221 222 218 194 166 149 123 109 96 85 86 78 93 98 113
165 143 125 159 237 266 287 294 298 301 300 310 308 316 331 331 326 316 307 302 293 281 266 261 251 238 233 228 231 231 229 228 230 227 228 227 233 219 192 172 142 118 84 73 74 62 76 63 78
181 178 161 219 231 252 271 282 290 302 299 297 304 311 320 329 326 320 308 303 302 295 287 274 258 246 239 234 236 237 236 234 237 237 234 231 236 233 218 207 182 130 84 70 68 62 54 55 59
205 216 213 224 243 244 254 269 282 281 285 294 300 311 314 319 314 315 310 308 310 302 296 283 265 259 249 239 240 240 240 238 240 245 240 239 242 243 240 231 226 217 94 78 75 68 50 78 65
228 225 236 231 241 247 247 252 261 271 283 291 295 308 309 308 306 305 308 309 308 304 299 293 270 264 255 243 243 242 242 243 246 245 246 247 248 250 248 241 240 258 271 249 131 64 46 72 57
236 236 240 243 247 253 250 248 254 265 276 287 295 297 300 304 301 298 299 305 304 295 294 293 277 268 259 249 247 244 241 244 248 253 257 253 252 254 258 254 259 277 278 276 258 278 289 316 327
240 243 245 248 249 252 249 250 256 266 273 278 284 292 295 300 299 297 295 303 301 291 289 291 285 272 263 252 247 246 243 246 249 250 258 256 255 259 267 269 267 273 274 273 266 261 273 284 300
245 248 249 252 252 255 254 250 253 257 270 277 282 288 290 291 294 296 296 301 298 288 285 283 281 276 269 254 248 246 246 247 250 256 257 258 257 261 270 269 269 271 268 266 267 263 267 273 279
244 250 253 258 256 255 254 248 251 255 264 274 279 284 285 286 287 290 294 296 294 288 285 283 279 277 273 258 248 246 251 252 252 256 260 260 258 261 265 269 272 270 265 260 264 267 264 268 273
245 252 252 252 259 257 258 253 257 263 264 273 279 281 284 283 284 285 288 290 291 287 284 282 278 277 274 262 250 249 253 257 257 257 258 257 257 262 266 266 268 264 263 258 262 262 264 266 267
240 247 244 239 256 261 259 255 257 265 270 275 277 277 280 282 283 283 283 284 287 285 283 279 278 277 270 262 253 252 254 257 257 259 258 256 259 262 265 265 265 259 259 256 259 256 261 263 264
228 233 232 231 241 254 258 256 254 263 264 272 274 280 285 283 280 277 282 282 288 284 283 281 282 275 266 263 259 256 258 259 257 262 260 257 258 259 261 261 261 260 257 256 253 253 258 259 259
229 233 236 237 243 252 254 256 258 259 264 272 277 278 282 286 285 282 282 290 292 290 284 280 278 272 270 267 265 265 264 260 262 263 261 261 261 259 259 257 256 257 255 251 251 254 255 256 255
232 231 233 235 245 253 255 257 260 261 263 270 275 278 279 281 280 280 283 285 286 289 287 283 282 276 273 268 267 268 267 264 262 259 261 262 261 257 258 256 254 253 253 251 250 251 252 254 256
232 233 233 233 240 253 258 258 261 269 265 268 274 276 276 278 278 276 279 282 282 284 285 282 280 280 278 274 270 269 265 265 264 261 261 262 262 254 253 253 250 251 251 252 252 253 255 255 257
230 232 235 236 240 245 249 254 265 270 270 273 276 275 275 279 282 277 276 277 279 282 281 282 280 278 275 272 268 268 268 266 265 266 266 266 263 253 249 251 249 249 250 251 251 254 256 256 258
228 230 234 237 241 246 246 250 260 263 265 270 276 274 276 278 281 277 273 273 276 281 282 284 280 279 276 274 274 270 269 268 266 266 266 267 261 252 248 250 250 249 249 251 252 254 256 258 258
226 226 230 236 244 250 247 247 256 262 260 264 270 274 269 274 276 275 275 273 272 276 283 285 282 280 277 275 275 274 271 271 273 271 268 264 259 255 249 251 250 247 247 251 252 255 258 258 258
226 224 224 226 249 252 245 242 249 259 266 267 268 273 273 274 273 274 276 275 274 278 283 286 284 279 278 277 273 273 272 272 275 273 268 262 260 255 251 250 249 247 249 252 253 255 256 258 259
223 221 212 219 234 245 240 239 248 260 266 269 269 270 273 274 274 275 274 274 276 280 285 285 282 278 275 275 272 273 276 272 273 271 267 265 264 257 253 251 248 249 251 252 252 254 257 259 259
217 218 209 219 234 240 244 246 251 259 267 271 271 270 271 274 276 278 279 282 281 283 287 284 281 279 277 274 269 273 278 277 275 272 270 268 265 260 257 256 250 250 253 253 253 254 257 260 259
216 215 216 221 226 240 247 239 240 245 254 269 277 270 265 270 274 275 281 284 283 283 285 286 286 280 275 273 269 271 276 278 274 270 269 269 266 261 258 256 253 253 254 255 254 256 258 259 259
219 217 218 221 222 226 245 256 247 246 250 268 272 270 268 270 274 278 282 283 281 281 284 286 285 281 274 271 270 272 276 277 276 269 266 267 268 263 260 259 257 258 258 257 256 256 259 260 260
Height
5888 5887 5888 5888 5888 5888 5888 5889 5888 5888 5887 5887 5886 5885 5884 5884 5885 5886 5885 5884 5885 5886 5886 5887 5887 5888 5888 5889 5889 5890 5890 5890 5890 5890 5890 5890 5890 5890 5890 5890 5890 5890 5891 5891 5891 5891 5892 5892 5892
5889 5889 5889 5888 5888 5889 5891 5891 5890 5889 5889 5888 5887 5886 5886 5885 5885 5885 5884 5885 5886 5886 5887 5887 5888 5888 5889 5890 5890 5891 5891 5891 5891 5891 5891 5891 5891 5891 5891 5891 5891 5892 5892 5892 5892 5892 5893 5893 5893
5890 5891 5891 5888 5889 5892 5893 5892 5891 5890 5890 5889 5888 5888 5887 5886 5886 5886 5886 5886 5887 5887 5887 5888 5888 5889 5890 5890 5891 5891 5892 5892 5892 5892 5892 5892 5892 5892 5892 5892 5892 5893 5893 5893 5893 5893 5894 5894 5894
5892 5892 5892 5892 5894 5895 5894 5894 5892 5891 5891 5890 5889 5888 5888 5887 5887 5887 5886 5887 5887 5888 5888 5888 5889 5889 5890 5891 5891 5892 5892 5892 5893 5893 5893 5893 5893 5893 5893 5893 5893 5894 5894 5894 5894 5894 5894 5895 5895
5892 5892 5891 5893 5896 5896 5896 5895 5894 5893 5892 5891 5890 5889 5889 5889 5888 5887 5887 5887 5888 5888 5888 5888 5889 5890 5890 5891 5892 5893 5893 5893 5894 5894 5894 5894 5894 5894 5894 5894 5894 5894 5895 5895 5895 5895 5895 5895 5896
5893 5892 5892 5893 5898 5898 5897 5896 5894 5894 5892 5891 5890 5890 5890 5889 5888 5888 5887 5888 5888 5888 5889 5889 5889 5890 5891 5891 5892 5893 5893 5894 5894 5895 5895 5895 5895 5895 5895 5895 5895 5895 5896 5896 5896 5896 5896 5896 5896
5894 5893 5893 5896 5899 5899 5897 5896 5895 5893 5893 5892 5891 5890 5890 5889 5889 5888 5887 5888 5888 5888 5889 5889 5889 5890 5891 5892 5892 5893 5894 5894 5895 5895 5895 5896 5896 5896 5896 5896 5896 5896 5896 5896 5896 5896 5896 5896 5896
5893 5894 5894 5897 5900 5899 5897 5896 5895 5894 5892 5892 5891 5890 5889 5889 5889 5888 5888 5888 5888 5888 5889 5889 5889 5890 5891 5892 5892 5893 5894 5894 5895 5895 5896 5896 5896 5896 5896 5897 5897 5897 5897 5897 5897 5897 5897 5897 5897
5893 5895 5895 5897 5899 5898 5897 5896 5895 5894 5893 5892 5891 5890 5890 5889 5889 5889 5888 5888 5888 5888 5889 5889 5889 5890 5890 5891 5892 5893 5894 5894 5895 5896 5896 5896 5897 5897 5897 5897 5897 5898 5897 5897 5897 5897 5897 5897 5897
5893 5894 5895 5897 5897 5897 5896 5896 5895 5894 5893 5891 5891 5890 5889 5889 5889 5889 5888 5888 5887 5888 5888 5888 5888 5889 5890 5891 5892 5893 5894 5894 5895 5896 5896 5897 5897 5898 5898 5898 5898 5898 5898 5898 5898 5898 5898 5898 5898
5892 5893 5894 5895 5896 5896 5895 5895 5895 5893 5892 5890 5889 5890 5889 5889 5889 5888 5888 5888 5887 5887 5887 5887 5887 5888 5890 5891 5891 5892 5893 5894 5895 5896 5896 5897 5898 5898 5898 5898 5899 5899 5899 5899 5899 5898 5898 5898 5898
5890 5892 5892 5893 5894 5894 5894 5894 5894 5893 5892 5889 5888 5889 5889 5889 5888 5888 5888 5887 5886 5886 5886 5886 5887 5887 5889 5890 5891 5891 5893 5894 5895 5896 5896 5897 5898 5898 5899 5899 5899 5899 5899 5899 5899 5899 5899 5899 5899
5889 5890 5891 5891 5892 5892 5892 5892 5892 5891 5891 5890 5889 5889 5888 5888 5887 5887 5887 5886 5886 5885 5885 5885 5886 5886 5887 5888 5889 5890 5891 5893 5894 5895 5896 5897 5898 5898 5898 5899 5899 5899 5899 5900 5900 5900 5900 5900 5900
5887 5888 5889 5889 5890 5890 5890 5891 5891 5890 5890 5889 5888 5888 5887 5886 5886 5885 5885 5885 5885 5884 5884 5884 5885 5885 5886 5887 5888 5889 5891 5892 5893 5894 5895 5896 5897 5898 5898 5899 5899 5899 5900 5900 5900 5900 5900 5900 5900
5884 5885 5887 5887 5888 5888 5888 5889 5888 5889 5888 5888 5886 5886 5886 5885 5885 5884 5884 5883 5883 5883 5883 5883 5883 5884 5884 5885 5886 5888 5889 5891 5892 5893 5894 5895 5896 5897 5898 5898 5899 5899 5899 5900 5900 5900 5900 5900 5900
5881 5883 5884 5886 5885 5886 5887 5886 5885 5884 5886 5886 5885 5884 5884 5884 5883 5883 5882 5882 5882 5881 5881 5882 5882 5882 5883 5883 5885 5886 5888 5889 5891 5892 5893 5894 5895 5896 5897 5898 5898 5899 5899 5899 5899 5900 5900 5900 5900
5878 5881 5883 5885 5884 5884 5885 5884 5883 5882 5883 5883 5883 5882 5882 5881 5881 5881 5880 5880 5879 5880 5880 5880 5880 5881 5881 5881 5882 5884 5886 5888 5889 5890 5892 5892 5893 5894 5895 5896 5897 5898 5898 5899 5899 5899 5899 5899 5900
5878 5880 5882 5883 5883 5883 5883 5882 5882 5881 5881 5881 5881 5880 5879 5879 5878 5878 5877 5877 5877 5878 5878 5878 5878 5879 5879 5880 5881 5882 5884 5885 5887 5888 5889 5890 5891 5893 5894 5895 5896 5896 5897 5898 5898 5898 5898 5899 5899
5874 5877 5878 5880 5880 5881 5880 5880 5879 5880 5880 5879 5878 5877 5877 5876 5875 5875 5874 5874 5875 5876 5876 5876 5876 5876 5877 5878 5879 5880 5881 5883 5884 5885 5887 5888 5889 5890 5891 5893 5894 5895 5896 5896 5897 5897 5898 5898 5898
5870 5873 5876 5877 5877 5877 5878 5878 5877 5877 5877 5876 5876 5875 5875 5874 5873 5871 5871 5872 5872 5873 5874 5874 5874 5874 5875 5876 5877 5878 5879 5880 5881 5883 5884 5885 5886 5888 5889 5890 5891 5892 5893 5894 5895 5896 5896 5897 5897
5867 5869 5872 5874 5874 5874 5875 5875 5875 5875 5875 5874 5874 5873 5872 5872 5871 5870 5870 5870 5871 5871 5871 5872 5872 5872 5872 5873 5874 5875 5876 5877 5879 5880 5881 5882 5883 5884 5886 5887 5888 5890 5891 5892 5893 5894 5895 5895 5896
5863 5866 5868 5870 5871 5872 5873 5873 5872 5871 5871 5871 5871 5871 5870 5869 5869 5868 5869 5869 5869 5869 5869 5870 5870 5870 5870 5870 5871 5872 5873 5874 5875 5876 5877 5879 5879 5881 5882 5883 5885 5887 5888 5890 5891 5891 5892 5893 5894
5860 5862 5864 5866 5868 5869 5869 5870 5870 5868 5867 5866 5868 5868 5867 5867 5866 5866 5866 5867 5867 5867 5867 5867 5867 5867 5868 5868 5869 5870 5870 5871 5872 5873 5874 5875 5876 5877 5878 5880 5881 5883 5885 5887 5888 5889 5889 5890 5891
5855 5858 5860 5862 5864 5865 5867 5867 5867 5865 5865 5864 5864 5865 5865 5865 5864 5864 5864 5864 5865 5865 5865 5865 5865 5864 5865 5866 5866 5867 5868 5868 5869 5870 5870 5871 5872 5873 5875 5876 5878 5880 5882 5883 5884 5885 5886 5887 5888
5851 5855 5857 5859 5861 5862 5864 5864 5864 5862 5861 5861 5862 5862 5862 5862 5862 5862 5862 5862 5863 5863 5863 5863 5863 5863 5863 5863 5864 5864 5865 5866 5866 5866 5867 5868 5868 5870 5871 5873 5874 5876 5878 5879 5881 5882 5883 5883 5884
5847 5851 5855 5858 5860 5860 5861 5861 5861 5860 5858 5859 5860 5860 5859 5860 5860 5860 5860 5860 5861 5861 5861 5861 5860 5860 5861 5861 5861 5862 5863 5863 5863 5863 5863 5864 5865 5866 5867 5869 5870 5872 5874 5876 5877 5878 5879 5879 5880
5844 5847 5852 5856 5856 5856 5857 5857 5857 5856 5856 5857 5858 5858 5858 5858 5858 5857 5858 5858 5858 5858 5858 5858 5858 5858 5858 5858 5859 5859 5860 5860 5860 5860 5860 5860 5861 5862 5864 5865 5867 5868 5870 5871 5873 5874 5875 5876 5876
5841 5844 5848 5850 5852 5853 5853 5853 5853 5851 5853 5854 5855 5855 5855 5855 5856 5855 5855 5856 5856 5856 5856 5855 5855 5855 5855 5856 5856 5857 5857 5857 5857 5857 5857 5857 5858 5859 5860 5861 5863 5864 5866 5867 5868 5869 5870 5871 5872
5836 5840 5843 5847 5849 5850 5850 5851 5848 5849 5850 5851 5852 5852 5853 5853 5853 5853 5853 5853 5854 5854 5853 5853 5852 5851 5852 5852 5853 5853 5854 5854 5854 5853 5853 5854 5854 5855 5856 5857 5858 5860 5861 5862 5863 5864 5865 5866 5867
5832 5836 5840 5842 5844 5846 5847 5847 5843 5843 5844 5846 5848 5849 5850 5850 5850 5851 5851 5851 5851 5851 5851 5850 5849 5848 5848 5849 5850 5850 5851 5851 5850 5850 5850 5851 5851 5852 5852 5853 5854 5856 5857 5857 5858 5859 5860 5861 5862